Salina Municipal Airport Salina US
ICAO: KSLN
IATA: SLN
Category: Medium
Scheduled Services: Yes

Elevation: 1288 ft
TransAlt. 18000 ft.

Airport Communications:
ATIS:120.15
KANSAS CITY CNTR:134.9
CTAF:119.3
GND:121.9
ARNG OPS:49.95
WICHITA RDO:122.4
TWR:119.3
UNICOM:122.95

KSLN Zoom In..

If you have problems with the map follow the link
https://www.worldairports.se/pages/airport.php?
ICAO=KSLN

Runways:

(A) RW 04 length 3648 ft width 75 ft
---- / hdg 42

(B) RW 12 length 6510 ft width 100 ft
---- / hdg 125

(C) RW 17 length 12300 ft width 150 ft
---- / hdg 173

(D) RW 18 length 4301 ft width 75 ft
---- / hdg 173

(E) RW 22 length 3648 ft width 75 ft
---- / hdg 222

(F) RW 30 length 6510 ft width 100 ft
---- / hdg 305

(G) RW 35 length 12300 ft width 150 ft
ILS 108.90 / hdg 353

(H) RW 36 length 4301 ft width 75 ft
---- / hdg 353

Location; KSLN
Day. 18 / Time. 03.53 Zulu
* Altimeter: 29.76
* Temperature: 04° c. 39.2°f.
* Wind from: 140° Speed 03 kn.
Dewpoint: 03° c.
Visibility: 2 m.
Clouds: Few 300 ft.
Clouds: Few 700 ft.
Clouds: Overcast 1200 ft.
Conditions: Mist.

KSLN 180353Z 14003KT 2 1/2SM BR FEW003 FEW007 OVC012 04/03 A2976 RMK AO2 SLP085 T00390033


Wind From 140°
Speed 03 kn.

 
 
jpsmedia worldairports.se 2020   terms of use